Sturgis, MI

6:11 AM EDT on May 27, 2018 (GMT -0400)
Kirsch Municipal

Weather History for KIRS - November, 2013

Change the Weather History Date:

Saturday, November 23, 2013

  Actual Average (WUND) Record (WUND)
Temperature  
Mean Temperature 22 °F -  
Max Temperature 28 °F - - (-1)
Min Temperature 15 °F - - (-1)
Degree Days  
Heating Degree Days 44    
Moisture  
Dew Point 17 °F    
Average Humidity 77    
Maximum Humidity 93    
Minimum Humidity 55    
Precipitation  
Precipitation 0.00 in - - ()
Sea Level Pressure  
Sea Level Pressure 30.40 in    
Wind  
Wind Speed 9 mph (WNW)    
Max Wind Speed 21 mph    
Max Gust Speed 33 mph    
Visibility 9 miles    
Events Snow    
Averages and records for this station are not official NWS values.
T = Trace of Precipitation, MM = Missing Value Source: NWS Daily Summary

Daily Weather History Graph

Daily Weather History Graph

Search for Another Location

Airport or City:

Astronomy

Nov. 23, 2013 Rise Set
Actual Time 7:41 AM EST 5:15 PM EST
Civil Twilight 7:10 AM EST 5:45 PM EST
Nautical Twilight 6:36 AM EST 6:19 PM EST
Astronomical Twilight 6:03 AM EST 6:53 PM EST
Moon 10:45 PM EST (11/23) 11:55 AM EST (11/23)
Length of Visible Light 10h 35m
Length of Day
9h 34m
Waning Gibbous, 70% of the Moon is Illuminated
Nov 23
Waning Gibbous
Nov 25
Last Quarter
Dec 2
New
Dec 9
First Quarter
Dec 17
Full

Hourly Weather History & Observations

Time (EST) Temp. Windchill Dew Point Humidity Pressure Visibility Wind Dir Wind Speed Gust Speed Precip Events Conditions
12:15 AM 26.6 °F 22.6 °F 24.8 °F 93% 30.39 in 10.0 mi SW 3.5 mph - N/A   Clear
12:34 AM 26.6 °F 21.2 °F 24.8 °F 93% 30.38 in 10.0 mi WSW 4.6 mph - N/A   Clear
12:55 AM 26.6 °F 22.6 °F 24.8 °F 93% 30.38 in 10.0 mi WSW 3.5 mph - N/A   Clear
1:15 AM 26.6 °F 21.2 °F 24.8 °F 93% 30.37 in 10.0 mi WSW 4.6 mph - N/A   Clear
1:34 AM 26.6 °F 20.0 °F 24.8 °F 93% 30.36 in 10.0 mi WSW 5.8 mph - N/A   Clear
1:55 AM 26.6 °F 21.2 °F 24.8 °F 93% 30.35 in 10.0 mi WSW 4.6 mph - N/A   Clear
2:15 AM 26.6 °F 21.2 °F 24.8 °F 93% 30.35 in 10.0 mi WSW 4.6 mph - N/A   Clear
2:34 AM 26.6 °F 21.2 °F 24.8 °F 93% 30.35 in 10.0 mi WSW 4.6 mph - N/A   Scattered Clouds
2:55 AM 26.6 °F 20.0 °F 24.8 °F 93% 30.34 in 10.0 mi WSW 5.8 mph - N/A   Scattered Clouds
3:15 AM 26.6 °F 19.1 °F 24.8 °F 93% 30.34 in 10.0 mi West 6.9 mph - N/A   Clear
3:34 AM 26.6 °F 19.1 °F 24.8 °F 93% 30.33 in 10.0 mi WSW 6.9 mph - N/A   Clear
3:55 AM 26.6 °F 16.8 °F 24.8 °F 93% 30.32 in 10.0 mi West 10.4 mph - N/A   Clear
4:14 AM 26.6 °F 18.2 °F 24.8 °F 93% 30.32 in 10.0 mi West 8.1 mph - N/A   Clear
4:34 AM 26.6 °F 18.2 °F 24.8 °F 93% 30.32 in 10.0 mi West 8.1 mph - N/A   Clear
4:55 AM 26.6 °F 17.5 °F 24.8 °F 93% 30.32 in 10.0 mi West 9.2 mph - N/A   Clear
5:14 AM 26.6 °F 18.2 °F 24.8 °F 93% 30.31 in 10.0 mi West 8.1 mph - N/A   Clear
5:34 AM 26.6 °F 19.1 °F 24.8 °F 93% 30.31 in 10.0 mi West 6.9 mph - N/A   Clear
5:55 AM 26.6 °F 20.0 °F 23.0 °F 86% 30.30 in 10.0 mi WSW 5.8 mph - N/A   Clear
6:14 AM 24.8 °F 17.9 °F 23.0 °F 93% 30.30 in 10.0 mi West 5.8 mph - N/A   Clear
6:34 AM 24.8 °F 16.9 °F 21.2 °F 86% 30.31 in 10.0 mi West 6.9 mph - N/A   Clear
6:55 AM 26.6 °F 19.1 °F 23.0 °F 86% 30.31 in 10.0 mi West 6.9 mph - N/A   Clear
7:14 AM 26.6 °F 17.5 °F 21.2 °F 80% 30.31 in 10.0 mi West 9.2 mph - N/A   Clear
7:34 AM 26.6 °F 18.2 °F 21.2 °F 80% 30.31 in 10.0 mi West 8.1 mph - N/A   Clear
7:55 AM 26.6 °F 18.2 °F 21.2 °F 80% 30.31 in 10.0 mi West 8.1 mph - N/A   Scattered Clouds
8:15 AM 26.6 °F 18.2 °F 21.2 °F 80% 30.31 in 10.0 mi West 8.1 mph - N/A   Scattered Clouds
8:34 AM 26.6 °F 19.1 °F 23.0 °F 86% 30.31 in 10.0 mi West 6.9 mph - N/A   Mostly Cloudy
8:55 AM 26.6 °F 18.2 °F 23.0 °F 86% 30.31 in 10.0 mi West 8.1 mph - N/A   Overcast
9:15 AM 28.4 °F 20.4 °F 24.8 °F 86% 30.33 in 1.5 mi NW 8.1 mph 16.1 mph N/A Snow Light Snow
9:34 AM 28.4 °F 17.5 °F 23.0 °F 80% 30.33 in 7.0 mi NW 13.8 mph 19.6 mph N/A Snow Light Snow
9:55 AM 28.4 °F 17.0 °F 21.2 °F 74% 30.34 in 10.0 mi NNW 15.0 mph 23.0 mph N/A   Mostly Cloudy
10:15 AM 28.4 °F 18.0 °F 19.4 °F 69% 30.35 in 10.0 mi WNW 12.7 mph 20.7 mph N/A   Scattered Clouds
10:34 AM 26.6 °F 13.8 °F 21.2 °F 80% 30.36 in 4.0 mi NNW 17.3 mph 27.6 mph N/A Snow Light Snow
10:55 AM 26.6 °F 14.7 °F 21.2 °F 80% 30.37 in 5.0 mi North 15.0 mph 26.5 mph N/A Snow Light Snow
11:15 AM 24.8 °F 10.3 °F 21.2 °F 86% 30.38 in 1.5 mi NNW 20.7 mph 31.1 mph N/A Snow Light Snow
11:34 AM 26.6 °F 16.2 °F 19.4 °F 74% 30.38 in 4.0 mi NNW 11.5 mph 25.3 mph N/A Snow Light Snow
11:55 AM 26.6 °F 15.2 °F 19.4 °F 74% 30.37 in 10.0 mi NW 13.8 mph 21.9 mph N/A   Overcast
12:15 PM 26.6 °F 13.8 °F 19.4 °F 74% 30.37 in 10.0 mi NW 17.3 mph 24.2 mph N/A   Overcast
12:34 PM 26.6 °F 15.2 °F 19.4 °F 74% 30.37 in 10.0 mi NW 13.8 mph 20.7 mph N/A   Mostly Cloudy
12:55 PM 26.6 °F 13.8 °F 17.6 °F 69% 30.37 in 7.0 mi NW 17.3 mph 27.6 mph N/A Snow Light Snow
1:15 PM 24.8 °F 12.4 °F 17.6 °F 74% 30.37 in 10.0 mi NNW 15.0 mph 25.3 mph N/A   Scattered Clouds
1:34 PM 24.8 °F 11.5 °F 19.4 °F 80% 30.38 in 3.0 mi NW 17.3 mph 28.8 mph N/A Snow Light Snow
1:55 PM 26.6 °F 14.7 °F 19.4 °F 74% 30.38 in 10.0 mi NW 15.0 mph 24.2 mph N/A   Overcast
2:15 PM 26.6 °F 14.3 °F 15.8 °F 64% 30.39 in 10.0 mi NW 16.1 mph 33.4 mph N/A   Scattered Clouds
2:34 PM 26.6 °F 13.1 °F 14.0 °F 59% 30.39 in 10.0 mi NW 19.6 mph 26.5 mph N/A   Clear
2:55 PM 26.6 °F 14.7 °F 14.0 °F 59% 30.39 in 10.0 mi NNW 15.0 mph 20.7 mph N/A   Clear
3:15 PM 26.6 °F 14.3 °F 12.2 °F 55% 30.41 in 10.0 mi NW 16.1 mph 27.6 mph N/A   Scattered Clouds
3:34 PM 24.8 °F 12.4 °F 12.2 °F 59% 30.42 in 10.0 mi NW 15.0 mph 24.2 mph N/A   Scattered Clouds
3:55 PM 24.8 °F 12.9 °F 12.2 °F 59% 30.42 in 10.0 mi NW 13.8 mph 20.7 mph N/A   Clear
4:15 PM 23.0 °F 10.1 °F 12.2 °F 63% 30.43 in 10.0 mi NW 15.0 mph 27.6 mph N/A   Scattered Clouds
4:34 PM 21.2 °F 8.3 °F 12.2 °F 68% 30.44 in 10.0 mi NNW 13.8 mph 23.0 mph N/A   Scattered Clouds
4:55 PM 21.2 °F 8.9 °F 12.2 °F 68% 30.46 in 10.0 mi NNW 12.7 mph 24.2 mph N/A   Mostly Cloudy
5:14 PM 21.2 °F 7.8 °F 12.2 °F 68% 30.47 in 10.0 mi NNW 15.0 mph 21.9 mph N/A   Mostly Cloudy
5:35 PM 19.4 °F 5.0 °F 12.2 °F 74% 30.47 in 10.0 mi NW 16.1 mph 23.0 mph N/A   Mostly Cloudy
5:54 PM 19.4 °F 7.9 °F 12.2 °F 74% 30.48 in 10.0 mi NNW 10.4 mph 18.4 mph N/A   Mostly Cloudy
6:15 PM 19.4 °F 8.6 °F 12.2 °F 74% 30.49 in 10.0 mi NW 9.2 mph - N/A   Mostly Cloudy
6:35 PM 19.4 °F 7.9 °F 10.4 °F 68% 30.50 in 10.0 mi NNW 10.4 mph 18.4 mph N/A   Mostly Cloudy
6:54 PM 19.4 °F 6.6 °F 10.4 °F 68% 30.50 in 10.0 mi NNW 12.7 mph 19.6 mph N/A   Scattered Clouds
7:15 PM 19.4 °F 5.5 °F 6.8 °F 58% 30.51 in 10.0 mi NNW 15.0 mph 23.0 mph N/A   Scattered Clouds
7:35 PM 19.4 °F 5.5 °F 6.8 °F 58% 30.52 in 10.0 mi North 15.0 mph 24.2 mph N/A   Scattered Clouds
7:54 PM 17.6 °F 5.7 °F 6.8 °F 63% 30.52 in 10.0 mi NNW 10.4 mph 19.6 mph N/A   Scattered Clouds
8:15 PM 17.6 °F 5.0 °F 6.8 °F 63% 30.53 in 10.0 mi NNW 11.5 mph - N/A   Scattered Clouds
8:35 PM 17.6 °F 7.3 °F 8.6 °F 68% 30.53 in 10.0 mi NNW 8.1 mph - N/A   Clear
8:54 PM 17.6 °F 6.4 °F 8.6 °F 68% 30.53 in 10.0 mi NNW 9.2 mph - N/A   Scattered Clouds
9:15 PM 17.6 °F 8.2 °F 8.6 °F 68% 30.53 in 10.0 mi North 6.9 mph 16.1 mph N/A   Scattered Clouds
9:35 PM 17.6 °F 5.7 °F 8.6 °F 68% 30.54 in 10.0 mi NNW 10.4 mph 16.1 mph N/A   Scattered Clouds
9:54 PM 17.6 °F 6.4 °F 8.6 °F 68% 30.54 in 10.0 mi NNW 9.2 mph - N/A   Mostly Cloudy
10:15 PM 17.6 °F 7.3 °F 8.6 °F 68% 30.53 in 10.0 mi NNW 8.1 mph - N/A   Scattered Clouds
10:35 PM 17.6 °F 7.3 °F 8.6 °F 68% 30.54 in 10.0 mi NNW 8.1 mph - N/A   Scattered Clouds
10:54 PM 17.6 °F 6.4 °F 8.6 °F 68% 30.54 in 10.0 mi NNW 9.2 mph - N/A   Scattered Clouds
11:15 PM 17.6 °F 10.7 °F 8.6 °F 68% 30.55 in 10.0 mi NW 4.6 mph - N/A   Scattered Clouds
11:35 PM 15.8 °F 10.2 °F 8.6 °F 73% 30.55 in 10.0 mi NNW 3.5 mph - N/A   Scattered Clouds
11:54 PM 17.6 °F 12.3 °F 8.6 °F 68% 30.55 in 10.0 mi WNW 3.5 mph - N/A   Mostly Cloudy